Weather in Thang Kwian

Thailand     12°47′23″N   101°39′00″E
temp.,
°C
wind,
m/s
gust,
m/s
humid.,
%
clouds,
%
prec.,
mm/h
press.,
hPa
HPBL,
m
17 april, sat
sat1701:00+28s357895 0.1 1010375
04:00+28ssw3479100 0.3 1009318
07:00+28s257999 2.5 1011386
10:00+31s446695 0.3 10131127
13:00+32s545996 0.4 10101348
16:00+31ssw55615 0.0 10081071
19:00+28ssw35731 0.0 1010323
22:00+27ssw34792 1.8 1012306
18 april, sun
sun1801:00+27sse348114 1.8 1011283
04:00+27sse238252 0.3 1010272
07:00+27sse23817 1.5 1011320
10:00+31s446536 0.1 10121236
13:00+31s546324 1.3 10101180
16:00+30ssw446476 1.8 10081126
19:00+28s357510 1.8 1009290
22:00+28ssw357614 0.0 1011334
19 april, mon
mon1901:00+27s247799 0.0 1009310
04:00+27s358387 1.6 1008330
07:00+27ssw2477100 6.6 1010298
10:00+30ssw3363100 0.3 10111214
13:00+31ssw5557100 1.4 10081278
16:00+30ssw446398 0.0 1007945
19:00+28s467384 0.0 1008382
22:00+28ssw6978100 2.1 1010536
20 april, tue
tue2001:00+27sw3584100 5.9 1008328
04:00+26ssw238698 4.3 1007211
07:00+28sw248088 4.4 1009351
10:00+31sw336364 0.1 10101220
13:00+32ssw435813 0.1 10081272
16:00+31ssw44615 0.1 1006942
19:00+28s357516 0.1 1008331
22:00+28s357863 0.0 1010360
21 april, wed
wed2101:00+27s3579100 0.0 1008342
04:00+27sse238191 0.2 1007292
07:00+27ssw238494 5.1 1009292
10:00+30ssw3367100 1.2 1011922
13:00+31ssw436283 1.2 10091052
16:00+31s445935 0.0 1007882
19:00+28s357119 0.0 1008249
22:00+27s357397 0.0 1010289